GW1601 Weather Reports


time (UTC)temp
C
wind
direction
speed
KPH
gust
KPH
rain 1hr
cm
rain 24hr
cm
rain mn
cm
humidity
%
barometer
mb
20260505092734 15 149 0.0 4.8 0.00 0.00 0.00 81 983.0
20260505092112 15 321 1.6 6.4 0.00 0.00 0.00 81 983.0
20260505091543 15 136 0.0 4.8 0.00 0.00 0.00 81 983.0
20260505090932 15 24 3.2 4.8 0.00 0.00 0.00 82 983.0
20260505090330 15 162 3.2 6.4 0.00 0.00 0.00 81 982.7
20260505085725 15 231 3.2 6.4 0.00 0.00 0.00 81 982.7
20260505085123 15 201 3.2 6.4 0.00 0.00 0.00 80 983.0
20260505084548 16 15 1.6 6.4 0.00 0.00 0.00 80 983.0
20260505083930 15 51 1.6 6.4 0.00 0.00 0.00 81 982.7
20260505082713 15 68 3.2 4.8 0.00 0.00 0.00 80 982.7
20260505081509 16 218 3.2 6.4 0.00 0.00 0.00 79 982.3
20260505080952 16 193 0.0 3.2 0.00 0.00 0.00 80 982.3
20260505080308 16 188 1.6 4.8 0.00 0.00 0.00 80 982.7
20260505075729 16 89 0.0 3.2 0.00 0.00 0.00 81 982.3
20260505075111 16 153 1.6 4.8 0.00 0.00 0.00 80 982.7
20260505073939 16 291 1.6 4.8 0.00 0.00 0.00 80 982.7
20260505073351 16 164 1.6 6.4 0.00 0.00 0.00 80 982.7
20260505072150 16 116 0.0 4.8 0.00 0.00 0.00 80 982.3
20260505070926 16 117 0.0 4.8 0.00 0.00 0.00 81
20260505070310 15 189 1.6 6.4 0.00 0.00 0.00 81
20260505065739 16 216 1.6 6.4 0.00 0.00 0.00 81
20260505064531 16 212 1.6 4.8 0.00 0.00 0.00 81 982.3
20260505063912 16 190 3.2 8.0 0.00 0.00 0.00 80
20260505063352 16 190 3.2 8.0 0.00 0.00 0.00 82
20260505062752 16 96 3.2 4.8 0.00 0.00 0.00 81
20260505062120 16 13 0.0 4.8 0.00 0.00 0.00 81 982.3
20260505060932 16 62 3.2 4.8 0.00 0.00 0.00 82 982.3
20260505060347 16 158 1.6 4.8 0.00 0.00 0.00 81 982.3
20260505055730 16 331 1.6 3.2 0.00 0.00 0.00 82 982.3
20260505055120 16 31 0.0 3.2 0.00 0.00 0.00 82 982.7
20260505054545 16 193 0.0 3.2 0.00 0.00 0.00 82 982.7
20260505053930 16 8 3.2 4.8 0.00 0.00 0.00 82 982.7
20260505053309 16 12 0.0 3.2 0.00 0.00 0.00 83 982.7
20260505051537 16 359 0.0 3.2 0.00 0.00 0.00 84 983.0
20260505050326 15 5 0.0 3.2 0.00 0.00 0.00 86 982.7
20260505041526 13 68 1.6 3.2 0.00 0.00 0.00 94 982.7
20260505040919 13 156 0.0 3.2 0.00 0.00 0.00 93 982.7
20260505035138 13 147 1.6 3.2 0.00 0.00 0.00 93 982.3
20260505034556 13 194 0.0 3.2 0.00 0.00 0.00 93 982.3
20260505033913 13 135 0.0 3.2 0.00 0.00 0.00 93 982.3
20260505033320 13 75 0.0 3.2 0.00 0.00 0.00 92 982.7
20260505032719 13 154 1.6 3.2 0.00 0.00 0.00 92 982.7
20260505032128 13 50 0.0 3.2 0.00 0.00 0.00 92 982.7
20260505031514 13 202 0.0 1.6 0.00 0.00 0.00 92 982.3
20260505030941 13 142 0.0 3.2 0.00 0.00 0.00 92 982.3
20260505030344 13 181 0.0 1.6 0.00 0.00 0.00 92 982.3
20260505025743 13 160 0.0 3.2 0.00 0.00 0.00 91 982.3
20260505025129 13 205 0.0 3.2 0.00 0.00 0.00 92 982.3
20260505024538 13 333 0.0 1.6 0.00 0.00 0.00 92 982.3
20260505022123 13 30 0.0 1.6 0.00 0.00 0.00 90 982.3
20260505021512 14 200 0.0 3.2 0.00 0.00 0.00 88 982.3
20260505020926 14 154 0.0 3.2 0.00 0.00 0.00 87 982.3
20260505020317 15 173 0.0 3.2 0.00 0.00 0.00 86 982.3
20260505015154 15 184 0.0 3.2 0.00 0.00 0.00 85 982.3
20260505014530 15 207 3.2 3.2 0.00 0.00 0.00 84 982.3
20260505013918 15 253 0.0 3.2 0.00 0.00 0.00 83 982.3
20260505013318 15 223 0.0 1.6 0.00 0.00 0.00 82
20260505012711 16 153 0.0 3.2 0.00 0.00 0.00 81
20260505012147 16 193 0.0 3.2 0.00 0.00 0.00 80
20260505011536 16 19 0.0 1.6 0.00 0.00 0.00 79
20260505010914 16 210 0.0 3.2 0.00 0.00 0.00 79
20260505010331 16 147 0.0 1.6 0.00 0.00 0.00 77
20260505005751 17 164 0.0 3.2 0.00 0.00 0.00 77
20260505005121 17 144 0.0 4.8 0.00 0.00 0.00 76
20260505004534 17 148 0.0 3.2 0.00 0.00 0.00 75
20260505003929 17 205 0.0 3.2 0.00 0.00 0.00 73
20260505003354 18 217 0.0 1.6 0.00 0.00 0.00 71
20260505002111 18 195 0.0 1.6 0.00 0.00 0.00 69
20260505001513 19 316 0.0 3.2 0.00 0.00 0.00 67
20260505000916 19 182 0.0 3.2 0.00 0.00 0.00 67
20260505000318 19 212 0.0 3.2 0.00 0.00 0.00 67
20260504235715 19 187 0.0 3.2 0.00 0.00 0.00 66
20260504234528 20 173 0.0 3.2 0.00 0.00 0.00 63 982.3
20260504233933 20 254 1.6 4.8 0.00 0.00 0.00 62 982.3
20260504233341 20 197 0.0 3.2 0.00 0.00 0.00 61 982.3
20260504232715 21 202 0.0 3.2 0.00 0.00 0.00 62 982.3
20260504232153 21 79 1.6 3.2 0.00 0.00 0.00 59 982.3
20260504231519 21 244 3.2 11.3 0.00 0.00 0.00 58 982.7
20260504230952 21 298 1.6 8.0 0.00 0.00 0.00 58 982.3
20260504225714 21 25 0.0 3.2 0.00 0.00 0.00 58 982.7
20260504225147 21 238 0.0 12.9 0.00 0.00 0.00 57 982.7
20260504224511 22 265 0.0 4.8 0.00 0.00 0.00 58 982.7
20260504223935 22 140 1.6 8.0 0.00 0.00 0.00 56 983.0
20260504223316 22 76 3.2 8.0 0.00 0.00 0.00 56 983.0
20260504222753 23 301 0.0 3.2 0.00 0.00 0.00 56 983.0
20260504222112 22 107 0.0 6.4 0.00 0.00 0.00 58 983.0
20260504221522 22 213 1.6 4.8 0.00 0.00 0.00 60 982.7
20260504220927 22 257 1.6 4.8 0.00 0.00 0.00 59 983.0
20260504220316 22 255 1.6 6.4 0.00 0.00 0.00 58 982.7
20260504215123 21 221 4.8 12.9 0.00 0.00 0.00 57 982.7
20260504214552 22 26 0.0 11.3 0.00 0.00 0.00 57 982.7
20260504213951 22 130 0.0 9.7 0.00 0.00 0.00 58 982.7
20260504211527 22 207 3.2 6.4 0.00 0.00 0.00 56 983.4
20260504210950 22 200 4.8 11.3 0.00 0.00 0.00 59 983.4
20260504210330 22 325 3.2 9.7 0.00 0.00 0.00 59 983.4
20260504205734 21 227 3.2 12.9 0.00 0.00 0.00 59 983.4
20260504205140 22 33 1.6 11.3 0.00 0.00 0.00 58 983.0
20260504204542 22 266 0.0 12.9 0.00 0.00 0.00 57 983.7
20260504203931 22 202 6.4 14.5 0.00 0.00 0.00 56 983.4
20260504202734 22 234 9.7 16.1 0.00 0.00 0.00 54 983.4
20260504202114 23 215 3.2 17.7 0.00 0.00 0.00 53 983.4
20260504201541 23 353 6.4 8.0 0.00 0.00 0.00 53 983.4
20260504200320 22 86 4.8 11.3 0.00 0.00 0.00 55 983.0
20260504195752 23 213 8.0 11.3 0.00 0.00 0.00 54 983.0
20260504195124 24 236 3.2 6.4 0.00 0.00 0.00 52 983.4
20260504194552 24 26 4.8 11.3 0.00 0.00 0.00 51 983.4
20260504193936 24 231 6.4 17.7 0.00 0.00 0.00 50 983.4
20260504193337 24 214 4.8 12.9 0.00 0.00 0.00 49 983.4
20260504192722 22 233 8.0 17.7 0.00 0.00 0.00 51 983.4
20260504192139 24 140 1.6 14.5 0.00 0.00 0.00 51 983.4
20260504191533 25 278 3.2 9.7 0.00 0.00 0.00 50 983.4
20260504190949 23 283 8.0 9.7 0.00 0.00 0.00 53 983.4
20260504185733 23 209 6.4 14.5 0.00 0.00 0.00 49 983.4
20260504184535 23 243 4.8 17.7 0.00 0.00 0.00 51 983.4
20260504183943 24 18 3.2 17.7 0.00 0.00 0.00 50 983.4
20260504183329 25 178 4.8 9.7 0.00 0.00 0.00 50 983.4
20260504182741 24 315 8.0 12.9 0.00 0.00 0.00 49 983.4
20260504182142 24 298 3.2 11.3 0.00 0.00 0.00 50 983.4
20260504181512 25 169 3.2 11.3 0.00 0.00 0.00 50 983.4
20260504180923 24 222 1.6 8.0 0.00 0.00 0.00 52 983.7
20260504180320 23 239 6.4 14.5 0.00 0.00 0.00 54 983.4
20260504175748 23 35 4.8 16.1 0.00 0.00 0.00 51 983.7
20260504174534 24 212 4.8 11.3 0.00 0.00 0.00 50 983.7
20260504173931 24 247 8.0 12.9 0.00 0.00 0.00 48 983.7
20260504172713 22 235 6.4 24.1 0.00 0.00 0.00 51 984.0
20260504172134 23 215 4.8 8.0 0.00 0.00 0.00 50 984.0
20260504171554 22 298 3.2 14.5 0.00 0.00 0.00 54 984.0
20260504170919 22 240 3.2 14.5 0.00 0.00 0.00 54 984.0
20260504170335 23 344 6.4 14.5 0.00 0.00 0.00 56 984.0
20260504160347 21 181 0.0 11.3 0.00 0.00 0.00 59 984.7
20260504150915 19 171 0.0 9.7 0.00 0.00 0.00 57 985.4
20260504140937 17 185 1.6 4.8 0.00 0.00 0.00 62 986.1
20260504140321 16 264 3.2 12.9 0.00 0.00 0.00 63 986.1
20260504130318 15 236 4.8 8.0 0.00 0.00 0.00 66 986.4
20260504110322 8 130 0.0 3.2 0.00 0.00 0.00 82 986.1
20260504100350 7 289 0.0 3.2 0.00 0.00 0.00 85 986.4